User: anonymous   Login
Location: Houston
(29.7631°N, 95.3631°W)
Time: 16:15:16
(UTC-05:00)
Language:

PicSat - Orbit

View from above orbital plane
View from above orbital plane
View from above satellite
View from above satellite

Ground track
Ground track

The orbit data is extracted from the following two-line orbital elements,

1 43131U 18004W   19143.80940526 +.00001236 +00000-0 +53953-4 0  9998
2 43131 097.4903 211.8787 0009035 355.2618 004.8532 15.24029999075573
Epoch (UTC): 23 May 2019 19:25:32
Eccentricity: 0.0009035
inclination: 97.4903°
perigee height: 487 km
apogee height: 500 km
right ascension of ascending node: 211.8787°
argument of perigee: 355.2618°
revolutions per day: 15.24029999
mean anomaly at epoch: 4.8532°
orbit number at epoch: 7557

The dashed part of the orbit path shows where the satellite is in the earth's shadow,  

DLR